Météo par heure à Alhos Vedros

Ce jour, 14 Mai, Vendredi

Heure Température Précipitation Vent Pression Humidité
00:00 +13°C° 0 mm 3 m/s 764 mmHg 94%
01:00 +13°C° 0 mm 3 m/s 764 mmHg 94%
02:00 +13°C° 0 mm 3 m/s 764 mmHg 95%
03:00 +13°C° 0 mm 3 m/s 764 mmHg 94%
04:00 +14°C° 0 mm 2 m/s 764 mmHg 94%
05:00 +14°C° 0 mm 2 m/s 764 mmHg 94%
06:00 +14°C° 0 mm 3 m/s 764 mmHg 84%
07:00 +17°C° 0 mm 3 m/s 765 mmHg 73%
08:00 +19°C° 0 mm 4 m/s 765 mmHg 63%
09:00 +20°C° 0 mm 4 m/s 765 mmHg 58%
10:00 +22°C° 0 mm 4 m/s 765 mmHg 54%
11:00 +23°C° 0 mm 5 m/s 765 mmHg 50%
12:00 +23°C° 0 mm 5 m/s 764 mmHg 49%
13:00 +25°C° 0 mm 5 m/s 764 mmHg 49%
14:00 +24°C° 0 mm 6 m/s 764 mmHg 48%
15:00 +23°C° 0 mm 6 m/s 764 mmHg 53%
16:00 +22°C° 0 mm 5 m/s 764 mmHg 58%
17:00 +21°C° 0 mm 5 m/s 763 mmHg 62%
18:00 +19°C° 0 mm 4 m/s 764 mmHg 70%
19:00 +18°C° 0 mm 4 m/s 764 mmHg 78%
20:00 +16°C° 0 mm 3 m/s 764 mmHg 86%
21:00 +16°C° 0 mm 2 m/s 764 mmHg 88%
22:00 +15°C° 0 mm 2 m/s 764 mmHg 90%
23:00 +15°C° 0 mm 2 m/s 764 mmHg 93%

Demain, 15 Mai, Samedi

Heure Température Précipitation Vent Pression Humidité
00:00 +15°C° 0 mm 2 m/s 763 mmHg 93%
01:00 +15°C° 0 mm 2 m/s 763 mmHg 94%
02:00 +14°C° 0 mm 1 m/s 763 mmHg 95%
03:00 +14°C° 0 mm 1 m/s 763 mmHg 94%
04:00 +15°C° 0 mm 1 m/s 763 mmHg 94%
05:00 +15°C° 0 mm 1 m/s 763 mmHg 93%
06:00 +18°C° 0 mm 1 m/s 763 mmHg 84%
07:00 +19°C° 0 mm 2 m/s 763 mmHg 74%
08:00 +21°C° 0 mm 2 m/s 764 mmHg 65%
09:00 +23°C° 0 mm 2 m/s 763 mmHg 61%
10:00 +25°C° 0 mm 3 m/s 763 mmHg 56%
11:00 +26°C° 0 mm 4 m/s 763 mmHg 51%
12:00 +26°C° 0 mm 4 m/s 763 mmHg 51%
13:00 +27°C° 0 mm 5 m/s 763 mmHg 50%
14:00 +27°C° 0 mm 5 m/s 763 mmHg 50%
15:00 +26°C° 0 mm 5 m/s 762 mmHg 54%
16:00 +25°C° 0 mm 5 m/s 762 mmHg 59%
17:00 +23°C° 0 mm 5 m/s 762 mmHg 63%
18:00 +21°C° 0 mm 4 m/s 763 mmHg 71%
19:00 +20°C° 0 mm 4 m/s 763 mmHg 80%
20:00 +18°C° 0 mm 3 m/s 763 mmHg 88%
21:00 +17°C° 0 mm 2 m/s 763 mmHg 90%
22:00 +17°C° 0 mm 2 m/s 763 mmHg 92%
23:00 +18°C° 0 mm 1 m/s 763 mmHg 93%

Après-demain, 16 Mai, Dimanche

Heure Température Précipitation Vent Pression Humidité
00:00 +18°C° 0 mm 1 m/s 763 mmHg 94%
01:00 +16°C° 0 mm 1 m/s 762 mmHg 94%
02:00 +16°C° 0 mm 1 m/s 762 mmHg 94%
03:00 +16°C° 0 mm 1 m/s 762 mmHg 94%
04:00 +16°C° 0 mm 1 m/s 762 mmHg 94%
05:00 +16°C° 0 mm 1 m/s 762 mmHg 94%
06:00 +18°C° 0 mm 2 m/s 762 mmHg 85%
07:00 +20°C° 0 mm 3 m/s 763 mmHg 76%
08:00 +22°C° 0 mm 4 m/s 763 mmHg 67%
09:00 +23°C° 0 mm 5 m/s 763 mmHg 63%
10:00 +25°C° 0 mm 5 m/s 763 mmHg 59%
11:00 +26°C° 0 mm 5 m/s 763 mmHg 55%
12:00 +26°C° 0 mm 6 m/s 762 mmHg 56%
13:00 +26°C° 0 mm 6 m/s 762 mmHg 57%
14:00 +26°C° 0 mm 6 m/s 762 mmHg 57%
15:00 +24°C° 0 mm 6 m/s 762 mmHg 60%
16:00 +23°C° 0 mm 6 m/s 762 mmHg 63%
17:00 +22°C° 0 mm 6 m/s 762 mmHg 66%
18:00 +21°C° 0 mm 5 m/s 763 mmHg 73%
19:00 +19°C° 0 mm 4 m/s 763 mmHg 80%
20:00 +18°C° 0 mm 4 m/s 763 mmHg 87%
21:00 +17°C° 0 mm 4 m/s 763 mmHg 87%
22:00 +17°C° 0 mm 4 m/s 763 mmHg 87%
23:00 +15°C° 0 mm 4 m/s 763 mmHg 88%

17 Mai, Lundi

Heure Température Précipitation Vent Pression Humidité
00:00 +15°C° 0 mm 4 m/s 763 mmHg 87%
01:00 +15°C° 0 mm 4 m/s 763 mmHg 86%
02:00 +15°C° 0 mm 4 m/s 764 mmHg 86%
03:00 +14°C° 0 mm 4 m/s 764 mmHg 84%
04:00 +14°C° 0 mm 4 m/s 764 mmHg 83%
05:00 +14°C° 0 mm 4 m/s 764 mmHg 81%
06:00 +17°C° 0 mm 4 m/s 765 mmHg 73%
07:00 +17°C° 0 mm 5 m/s 765 mmHg 65%
08:00 +20°C° 0 mm 6 m/s 766 mmHg 56%
09:00 +21°C° 0 mm 6 m/s 766 mmHg 50%
10:00 +22°C° 0 mm 6 m/s 766 mmHg 43%
11:00 +23°C° 0 mm 6 m/s 765 mmHg 37%
12:00 +24°C° 0 mm 6 m/s 765 mmHg 34%
13:00 +24°C° 0 mm 7 m/s 765 mmHg 31%
14:00 +24°C° 0 mm 7 m/s 765 mmHg 28%
15:00 +22°C° 0 mm 7 m/s 765 mmHg 32%
16:00 +21°C° 0 mm 7 m/s 765 mmHg 36%
17:00 +20°C° 0 mm 7 m/s 765 mmHg 40%
18:00 +17°C° 0 mm 6 m/s 766 mmHg 48%
19:00 +15°C° 0 mm 5 m/s 766 mmHg 56%
20:00 +14°C° 0 mm 4 m/s 766 mmHg 63%
21:00 +13°C° 0 mm 4 m/s 766 mmHg 66%
22:00 +13°C° 0 mm 4 m/s 766 mmHg 69%
23:00 +12°C° 0 mm 4 m/s 766 mmHg 71%

18 Mai, Mardi

Heure Température Précipitation Vent Pression Humidité
00:00 +12°C° 0 mm 4 m/s 766 mmHg 73%
01:00 +12°C° 0 mm 4 m/s 766 mmHg 75%
02:00 +12°C° 0 mm 4 m/s 766 mmHg 77%
03:00 +12°C° 0 mm 3 m/s 766 mmHg 78%
04:00 +11°C° 0 mm 3 m/s 766 mmHg 80%
05:00 +11°C° 0 mm 3 m/s 766 mmHg 81%
06:00 +14°C° 0 mm 3 m/s 766 mmHg 67%
07:00 +18°C° 0 mm 3 m/s 766 mmHg 54%
08:00 +20°C° 0 mm 3 m/s 766 mmHg 40%
09:00 +22°C° 0 mm 3 m/s 766 mmHg 35%
10:00 +25°C° 0 mm 3 m/s 766 mmHg 30%
11:00 +27°C° 0 mm 3 m/s 766 mmHg 24%
12:00 +28°C° 0 mm 4 m/s 766 mmHg 25%
13:00 +28°C° 0 mm 5 m/s 765 mmHg 26%
14:00 +28°C° 0 mm 5 m/s 765 mmHg 26%
15:00 +26°C° 0 mm 6 m/s 765 mmHg 30%
16:00 +24°C° 0 mm 6 m/s 765 mmHg 34%
17:00 +22°C° 0 mm 6 m/s 766 mmHg 38%
18:00 +21°C° 0 mm 5 m/s 766 mmHg 45%
19:00 +19°C° 0 mm 5 m/s 766 mmHg 52%
20:00 +17°C° 0 mm 4 m/s 767 mmHg 58%
21:00 +17°C° 0 mm 4 m/s 766 mmHg 63%
22:00 +16°C° 0 mm 3 m/s 766 mmHg 68%
23:00 +14°C° 0 mm 3 m/s 766 mmHg 73%

19 Mai, Mercredi

Heure Température Précipitation Vent Pression Humidité
00:00 +14°C° 0 mm 3 m/s 766 mmHg 76%
01:00 +14°C° 0 mm 3 m/s 766 mmHg 79%
02:00 +15°C° 0 mm 2 m/s 765 mmHg 82%
03:00 +15°C° 0 mm 2 m/s 765 mmHg 83%
04:00 +14°C° 0 mm 3 m/s 765 mmHg 85%
05:00 +14°C° 0 mm 3 m/s 765 mmHg 86%
06:00 +17°C° 0 mm 3 m/s 766 mmHg 75%
07:00 +20°C° 0 mm 3 m/s 766 mmHg 65%
08:00 +23°C° 0 mm 4 m/s 766 mmHg 54%
09:00 +25°C° 0 mm 4 m/s 765 mmHg 49%
10:00 +27°C° 0 mm 5 m/s 765 mmHg 45%
11:00 +29°C° 0 mm 5 m/s 765 mmHg 40%
12:00 +29°C° 0 mm 6 m/s 765 mmHg 39%
13:00 +29°C° 0 mm 6 m/s 764 mmHg 37%
14:00 +29°C° 0 mm 7 m/s 764 mmHg 35%
15:00 +28°C° 0 mm 7 m/s 764 mmHg 38%
16:00 +26°C° 0 mm 7 m/s 764 mmHg 42%
17:00 +24°C° 0 mm 7 m/s 764 mmHg 45%
18:00 +22°C° 0 mm 6 m/s 765 mmHg 55%
19:00 +20°C° 0 mm 5 m/s 765 mmHg 65%
20:00 +17°C° 0 mm 5 m/s 765 mmHg 75%
21:00 +18°C° 0 mm 4 m/s 765 mmHg 81%
22:00 +17°C° 0 mm 4 m/s 765 mmHg 87%
23:00 +17°C° 0 mm 3 m/s 765 mmHg 93%
Voir plus

Nous avons besoin de votre consentement

Meteoprog et ses fournisseurs de services peuvent stocker et accéder à des données personnelles telles que des cookies, des identifiants d'appareils ou d'autres technologies similaires sur votre appareil et traiter ces données pour personnaliser le contenu et les publicités, ainsi que pour fournir des fonctionnalités de médias sociaux et analyser le trafic.

  • Stocker et/ou accéder à des informations sur votre appareil

    Des cookies, des identifiants d'appareils ou d'autres informations peuvent être stockés ou accessibles sur votre appareil aux fins indiquées ci-dessus.

  • Annonces et contenus personnalisés, mesure des annonces et des contenus, connaissance de l'audience et développement de produits

    Les annonces et le contenu peuvent être personnalisés en fonction d'un profil. D'autres données peuvent être ajoutées pour mieux personnaliser les annonces et le contenu. Les performances des publicités et du contenu peuvent être mesurées. Il est possible d'obtenir des informations sur le public qui a vu les publicités et le contenu. Ces données peuvent être utilisées pour développer ou améliorer l'expérience de l'utilisateur, les systèmes et les logiciels.

En cliquant sur "J'accepte", vous autorisez l'utilisation de cookies, des identifiants d'appareils, des balises web ou d'autres technologies similaires. Vos paramètres peuvent être modifiés dans le navigateur de votre appareil.

Dans certains cas, des intérêts légitimes peuvent être invoqués plutôt qu'un consentement. Vous pouvez en savoir plus à ce sujet dans notre Politique de confidentialité et de cookies.